SCP
0 0 0 0 0 0 0 0 0 0 0 0 0 0 0 0 0 0 0 0 0 0 0 0 0 0 0 0 0 0 0 0 0 0 0 0 0 0
0 0 0 0 0 0 0 0 0 0 0 0 0 0 0 0 0 0 0 0 0 0 0 0 0 0 0 0 0 0 0 0 0 0 0 0 0 0
0 0 0 0 0 0 0 0 0 0 0 0 0 0 0 0 0 0 0 0 0 0 0 0 0 0 0 0 0 0 0 0 0 0 0 0 0 0
0 0 0 0 0 0 0 0 0 0 0 0 0 0 0 0 0 0 0 0 0 0 0 0 0 0 0 0 0 0 0 0 0 0 0 0 0 0
0 0 0 0 0 0 0 0 0 0 0 0 0 0 0 0 0 0 0 0 0 0 0 0 0 0 0 0 0 0 0 0 0 0 0 0 0 0
0 0 0 0 0 0 0 0 0 0 0 0 0 0 0 0 0 0 0 0 0 0 0 0 0 0 0 0 0 0 0 0 0 0 0 0 0 0
0 0 0 0 0 0 0 0 0 0 0 0 0 0 0 0 0 0 0 0 0 0 0 0 0 0 0 0 0 0 0 0 0 0 0 0 0 0
0 0 0 0 0 0 0 0 0 0 0 0 0 0 0 0 0 0 0 0 0 0 0 0 0 0 0 0 0 0 0 0 0 0 0 0 0 0
0 0 0 0 0 0 0 0 0 0 0 0 0 0 0 0 0 0 0 0 0 0 0 0 0 0 0 0 0 0 0 0 0 0 0 0 0 0
0 0 0 0 0 0 0 0 0 0 0 0 0 0 0 0 0 0 0 0 0 0 0 0 0 0 0 0 0 0 0 0 0 0 0 0 0 0
0 0 0 0 0 0 0 0 0 0 0 0 0 0 0 0 0 0 0 0 0 0 0 0 0 0 0 0 0 0 0 0 0 0 0 0 0 0
0 0 0 0 0 0 0 0 0 0 0 0 0 0 0 0 0 0 0 0 0 0 0 0 0 0 0 0 0 0 0 0 0 0 0 0 0 0
0 0 0 0 0 0 0 0 0 0 0 0 0 0 0 0 0 0 0 0 0 0 0 0 0 0 0 0 0 0 0 0 0 0 0 0 0 0
0 0 0 0 0 0 0 0 0 0 0 0 0 0 0 0 0 0 0 0 0 0 0 0 0 0 0 0 0 0 0 0 0 0 0 0 0 0
0 0 0 0 0 0 0 0 0 0 0 0 0 0 0 0 0 0 0 0 0 0 0 0 0 0 0 0 0 0 0 0 0 0 0 0 0 0
0 0 0 0 0 0 0 0 0 0 0 0 0 0 0 0 0 0 0 0 0 0 0 0 0 0 0 0 0 0 0 0 0 0 0 0 0 0
0 0 0 0 0 0 0 0 0 0 0 0 0 0 0 0 0 0 0 0 0 0 0 0 0 0 0 0 0 0 0 0 0 0 0 0 0 0
0 0 0 0 0 0 0 0 0 0 0 0 0 0 0 0 0 0 0 0 0 0 0 0 0 0 0 0 0 0 0 0 0 0 0 0 0 0
0 0 0 0 0 0 0 0 0 0 0 0 0 0 0 0 0 0 0 0 0 0 0 0 0 0 0 0 0 0 0 0 0 0 0 0 0 0
0 0 0 0 0 0 0 0 0 0 0 0 0 0 0 0 0 0 0 0 0 0 0 0 0 0 0 0 0 0 0 0 0 0 0 0 0 0
0 0 0 0 0 0 0 0 0 0 0 0 0 0 0 0 0 0 0 0 0 0 0 0 0 0 0 0 0 0 0 0 0 0 0 0 0 0
0 0 0 0 0 0 0 0 0 0 0 0 0 0 0 0 0 0 0 0 0 0 0 0 0 0 0 0 0 0 0 0 0 0 0 0 0 0
0 0 0 0 0 0 0 0 0 0 0 0 0 0 0 0 0 0 0 0 0 0 0 0 0 0 0 0 0 0 0 0 0 0 0 0 0 0
Wind_Speed
3 4 3 3 3 3 3 3 3 3 3 3 2 2 3 3 4 4 4 6 7 8 8 8 9 9 10 10 10 9 9 9 9 9 9 9 10 10
3 3 3 3 3 3 3 3 3 3 3 3 3 3 3 3 3 3 4 4 6 6 6 7 8 8 9 10 10 10 10 10 10 10 10 10 10 10
3 3 4 3 2 2 3 3 4 4 4 4 2 2 3 3 3 2 3 3 3 6 6 6 7 8 9 9 9 9 10 10 10 10 10 10 9 10
4 3 4 3 3 3 2 3 3 4 4 5 3 2 3 3 3 3 2 3 3 5 6 7 7 7 8 9 9 9 10 10 10 10 10 10 10 10
4 4 4 3 3 2 3 3 3 3 3 3 3 2 2 2 2 3 2 2 3 4 5 6 7 7 7 8 9 9 10 10 10 10 10 10 10 10
3 4 4 4 4 4 3 4 3 3 2 3 3 2 2 2 2 2 2 2 3 3 3 4 4 6 8 8 9 9 10 10 10 10 10 10 10 9
3 3 4 4 5 4 3 4 3 3 2 3 3 2 2 2 2 2 3 2 3 2 2 3 3 3 5 7 9 9 10 10 10 10 10 10 10 9
3 3 3 3 3 4 5 5 5 4 4 3 3 3 4 3 2 2 2 2 3 2 2 4 3 4 4 4 7 8 9 9 9 9 10 10 10 10
3 3 2 2 2 2 3 4 5 6 6 5 5 5 5 4 3 3 3 4 4 2 2 4 3 4 4 5 7 8 9 9 9 9 9 10 9 9
3 3 3 2 2 3 3 2 3 3 5 5 5 6 5 4 5 4 4 3 3 3 3 4 3 4 3 4 6 8 9 9 9 9 9 9 9 9
2 3 3 3 3 4 3 2 3 4 4 5 6 6 7 6 4 3 3 2 3 3 3 3 3 3 3 3 4 7 8 8 8 8 8 8 8 7
2 2 4 4 4 4 4 4 4 5 4 3 3 4 5 5 6 6 5 4 2 3 3 3 2 2 3 2 2 2 3 6 7 8 8 8 7 5
2 2 3 4 5 5 5 5 6 5 3 3 3 3 3 3 3 4 5 5 4 4 3 3 2 2 3 2 2 2 2 2 3 4 6 7 8 7
3 3 3 4 4 4 4 5 5 4 2 2 2 3 3 3 3 4 5 5 5 5 4 4 3 3 3 3 3 2 1 2 2 2 3 4 5 7
2 3 3 4 4 3 4 5 4 2 2 3 3 4 3 3 2 2 2 3 4 4 4 4 4 3 3 3 3 2 2 2 2 2 2 2 3 3
2 2 2 2 2 3 2 2 3 3 3 3 3 3 2 2 2 2 2 2 2 2 3 4 4 4 3 4 3 3 3 2 2 2 2 2 2 3
1 1 1 1 1 1 2 2 2 2 3 3 3 3 3 3 3 2 2 2 2 3 2 2 3 3 4 3 3 4 3 3 3 3 2 3 3 3
2 2 2 2 2 3 3 2 3 3 3 3 3 3 3 3 3 2 2 3 3 3 3 3 1 1 2 2 4 4 4 4 3 3 3 3 3 3
3 3 3 3 3 3 3 3 3 3 3 3 3 3 3 3 3 3 3 3 3 3 3 3 2 2 3 4 3 5 4 3 2 2 2 3 4 3
2 3 3 3 3 3 3 3 3 2 2 3 3 3 3 3 3 3 3 4 4 3 3 3 3 4 5 4 3 2 5 4 3 3 3 3 3 4
2 3 3 3 3 3 3 3 3 3 3 3 3 3 3 3 3 4 3 4 4 4 4 4 4 4 3 2 3 2 2 4 4 3 3 3 3 2
2 3 3 3 3 3 3 2 2 3 3 2 3 2 2 3 3 4 3 3 4 4 4 3 2 2 3 4 4 4 3 2 3 3 3 3 2 3
2 3 3 3 2 2 2 2 3 3 3 3 3 3 3 3 3 3 3 4 3 4 3 3 2 2 3 3 4 4 4 3 2 2 2 3 5 5
Wind_Direction
215 211 213 217 211 207 198 192 199 240 262 258 260 265 257 250 255 248 247 243 234 230 228 229 230 231 230 228 226 223 222 221 223 226 229 231 233 235
212 212 219 215 210 209 207 208 207 214 245 248 242 266 266 271 266 250 250 252 242 232 228 229 232 233 232 231 229 224 221 220 221 225 229 232 235 236
223 218 231 222 214 215 210 210 213 211 240 263 249 261 253 268 285 270 258 249 246 237 235 236 236 234 234 234 232 227 225 222 222 225 229 230 232 235
233 224 234 230 225 227 221 223 222 217 228 257 267 269 262 267 271 267 265 254 251 243 239 240 241 238 234 234 236 232 228 225 223 225 228 230 231 233
236 234 235 228 238 240 234 232 229 225 220 236 260 264 274 286 287 279 272 273 266 252 240 242 244 243 238 235 235 234 229 227 226 227 229 231 234 235
244 241 238 228 231 231 229 229 227 223 218 230 249 263 267 272 265 267 275 269 272 270 261 254 251 247 244 239 236 231 227 228 228 229 231 232 231 228
254 248 243 239 232 226 229 224 215 218 220 227 243 252 256 255 252 248 262 281 271 261 271 267 258 256 249 241 237 231 228 228 228 230 230 231 229 226
250 255 253 247 247 242 242 230 212 210 218 224 232 240 248 246 243 243 249 264 274 250 254 268 253 256 252 241 234 227 225 227 229 229 231 230 228 227
229 240 250 254 247 249 253 249 237 227 215 215 228 236 238 233 227 235 232 237 251 257 239 266 257 261 258 247 232 229 228 228 228 228 228 227 227 228
226 220 224 246 244 229 232 246 258 254 236 230 238 246 247 239 224 231 240 250 269 260 233 257 260 262 273 257 234 230 231 229 229 229 228 227 228 231
240 222 215 230 239 210 206 239 268 276 261 244 244 255 258 247 225 206 213 227 263 265 222 235 258 271 272 263 249 233 234 232 232 233 232 229 229 229
252 240 230 231 236 208 204 219 247 261 273 284 271 267 258 243 218 214 214 219 234 253 222 215 244 258 275 255 249 240 233 234 233 233 231 229 221 218
248 256 255 242 241 231 218 223 239 252 258 262 270 272 266 251 232 225 221 215 218 233 221 203 232 230 246 271 270 252 243 238 230 234 231 226 217 210
243 254 259 252 248 246 237 240 242 241 243 248 261 266 265 261 255 240 229 227 230 235 229 209 223 227 239 254 264 269 264 243 229 235 238 221 219 217
243 255 268 265 261 253 247 244 233 226 229 241 252 259 257 262 261 255 247 237 244 245 234 223 226 230 229 241 252 257 267 266 242 235 233 222 221 211
258 271 272 274 266 257 259 239 222 217 216 234 250 265 270 260 252 243 246 238 243 259 245 235 231 225 232 240 244 252 244 246 245 240 240 236 225 223
225 250 259 298 304 289 263 243 227 220 224 231 240 255 258 259 259 246 239 230 231 249 263 253 238 231 232 234 245 253 253 251 249 243 237 250 245 235
177 216 241 249 257 263 269 259 238 233 231 229 234 243 246 248 258 252 237 231 237 244 251 254 233 212 221 236 232 250 251 256 258 240 234 246 259 252
194 228 239 245 254 259 259 262 258 247 231 229 234 240 243 244 247 245 236 235 240 244 246 237 221 216 237 254 233 213 237 250 247 243 239 239 254 262
227 240 249 256 262 265 263 264 266 261 246 239 241 243 241 239 240 243 236 230 235 242 246 236 226 225 235 249 253 239 224 234 232 237 246 249 258 267
249 248 251 257 262 261 260 260 259 253 254 250 245 241 240 237 238 240 240 232 232 238 242 244 243 235 235 235 245 249 239 228 232 231 230 239 258 262
260 256 256 257 258 255 256 257 260 259 258 257 258 253 245 240 242 244 242 235 230 234 245 255 253 225 222 227 241 251 253 241 228 232 237 230 234 242
266 262 260 260 259 256 257 259 261 263 263 262 258 258 253 250 249 247 245 245 239 234 238 246 243 234 240 240 243 248 248 242 231 226 249 265 254 258